Hourly Weather Giurgiulesti

Today, 9 May, Sunday

Time Temperature Precipitation Wind Pressure Humidity
00:00 +9°C° 0 mm 3 mps 763 mmHg 59%
01:00 +9°C° 0 mm 3 mps 763 mmHg 61%
02:00 +8°C° 0 mm 3 mps 764 mmHg 62%
03:00 +8°C° 0 mm 3 mps 764 mmHg 64%
04:00 +7°C° 0 mm 3 mps 765 mmHg 65%
05:00 +7°C° 0 mm 3 mps 765 mmHg 66%
06:00 +8°C° 0 mm 3 mps 765 mmHg 61%
07:00 +10°C° 0 mm 3 mps 766 mmHg 56%
08:00 +12°C° 0 mm 3 mps 766 mmHg 50%
09:00 +13°C° 0 mm 3 mps 766 mmHg 46%
10:00 +14°C° 0 mm 3 mps 766 mmHg 42%
11:00 +16°C° 0 mm 3 mps 766 mmHg 38%
12:00 +17°C° 0 mm 3 mps 766 mmHg 36%
13:00 +17°C° 0 mm 2 mps 766 mmHg 34%
14:00 +18°C° 0 mm 2 mps 766 mmHg 32%
15:00 +18°C° 0 mm 2 mps 766 mmHg 32%
16:00 +19°C° 0 mm 1 mps 766 mmHg 31%
17:00 +19°C° 0 mm 1 mps 765 mmHg 31%
18:00 +18°C° 0 mm 1 mps 766 mmHg 36%
19:00 +15°C° 0 mm 2 mps 766 mmHg 41%
20:00 +14°C° 0 mm 2 mps 766 mmHg 46%
21:00 +12°C° 0 mm 3 mps 766 mmHg 51%
22:00 +11°C° 0 mm 3 mps 766 mmHg 57%
23:00 +10°C° 0 mm 3 mps 766 mmHg 62%

Tomorrow, 10 May, Monday

Time Temperature Precipitation Wind Pressure Humidity
00:00 +10°C° 0 mm 3 mps 766 mmHg 65%
01:00 +9°C° 0 mm 3 mps 766 mmHg 68%
02:00 +9°C° 0 mm 3 mps 766 mmHg 71%
03:00 +8°C° 0 mm 2 mps 766 mmHg 71%
04:00 +8°C° 0 mm 2 mps 766 mmHg 71%
05:00 +8°C° 0 mm 2 mps 766 mmHg 71%
06:00 +10°C° 0 mm 2 mps 766 mmHg 65%
07:00 +12°C° 0 mm 2 mps 766 mmHg 58%
08:00 +13°C° 0 mm 3 mps 767 mmHg 51%
09:00 +16°C° 0 mm 3 mps 766 mmHg 47%
10:00 +17°C° 0 mm 3 mps 766 mmHg 43%
11:00 +18°C° 0 mm 3 mps 766 mmHg 38%
12:00 +19°C° 0 mm 3 mps 766 mmHg 37%
13:00 +20°C° 0 mm 3 mps 765 mmHg 37%
14:00 +20°C° 0 mm 3 mps 765 mmHg 36%
15:00 +20°C° 0 mm 3 mps 764 mmHg 37%
16:00 +20°C° 0 mm 3 mps 764 mmHg 38%
17:00 +20°C° 0 mm 3 mps 764 mmHg 39%
18:00 +18°C° 0 mm 3 mps 764 mmHg 45%
19:00 +15°C° 0 mm 4 mps 764 mmHg 51%
20:00 +13°C° 0 mm 4 mps 764 mmHg 57%
21:00 +12°C° 0 mm 3 mps 764 mmHg 58%
22:00 +11°C° 0 mm 3 mps 764 mmHg 59%
23:00 +11°C° 0 mm 3 mps 764 mmHg 59%

Day after tomorrow, 11 May, Tuesday

Time Temperature Precipitation Wind Pressure Humidity
00:00 +10°C° 0 mm 2 mps 764 mmHg 61%
01:00 +10°C° 0 mm 2 mps 764 mmHg 62%
02:00 +9°C° 0 mm 2 mps 763 mmHg 63%
03:00 +9°C° 0 mm 2 mps 763 mmHg 64%
04:00 +9°C° 0 mm 1 mps 763 mmHg 66%
05:00 +9°C° 0 mm 1 mps 763 mmHg 67%
06:00 +11°C° 0 mm 1 mps 763 mmHg 61%
07:00 +13°C° 0 mm 1 mps 763 mmHg 54%
08:00 +15°C° 0 mm 1 mps 763 mmHg 48%
09:00 +16°C° 0 mm 1 mps 762 mmHg 45%
10:00 +19°C° 0 mm 1 mps 762 mmHg 42%
11:00 +20°C° 0 mm 1 mps 761 mmHg 39%
12:00 +21°C° 0 mm 1 mps 761 mmHg 38%
13:00 +22°C° 0 mm 1 mps 760 mmHg 36%
14:00 +22°C° 0 mm 1 mps 760 mmHg 34%
15:00 +23°C° 0 mm 1 mps 759 mmHg 34%
16:00 +23°C° 0 mm 1 mps 759 mmHg 33%
17:00 +23°C° 0 mm 1 mps 758 mmHg 33%
18:00 +20°C° 0 mm 2 mps 758 mmHg 37%
19:00 +19°C° 0 mm 2 mps 758 mmHg 42%
20:00 +17°C° 0 mm 2 mps 758 mmHg 47%
21:00 +16°C° 0 mm 2 mps 758 mmHg 50%
22:00 +16°C° 0 mm 1 mps 757 mmHg 54%
23:00 +15°C° 0 mm 1 mps 757 mmHg 57%

12 May, Wednesday

Time Temperature Precipitation Wind Pressure Humidity
00:00 +15°C° 0 mm 1 mps 757 mmHg 61%
01:00 +15°C° 0 mm 1 mps 756 mmHg 65%
02:00 +15°C° 0 mm 2 mps 756 mmHg 69%
03:00 +14°C° 0 mm 2 mps 756 mmHg 75%
04:00 +14°C° 0 mm 2 mps 756 mmHg 80%
05:00 +13°C° 0 mm 3 mps 756 mmHg 86%
06:00 +13°C° 0 mm 3 mps 756 mmHg 85%
07:00 +13°C° 0 mm 4 mps 756 mmHg 83%
08:00 +13°C° 0 mm 4 mps 756 mmHg 81%
09:00 +13°C° 0 mm 4 mps 756 mmHg 78%
10:00 +13°C° 0 mm 3 mps 755 mmHg 75%
11:00 +14°C° 0 mm 3 mps 755 mmHg 72%
12:00 +15°C° 0 mm 2 mps 755 mmHg 70%
13:00 +15°C° 0 mm 2 mps 755 mmHg 68%
14:00 +16°C° 0 mm 2 mps 755 mmHg 66%
15:00 +16°C° 0 mm 2 mps 754 mmHg 66%
16:00 +16°C° 0 mm 2 mps 754 mmHg 66%
17:00 +16°C° 0 mm 2 mps 754 mmHg 66%
18:00 +16°C° 0 mm 3 mps 754 mmHg 69%
19:00 +14°C° 0 mm 4 mps 754 mmHg 72%
20:00 +13°C° 0 mm 4 mps 753 mmHg 75%
21:00 +13°C° 0 mm 4 mps 753 mmHg 78%
22:00 +13°C° 0 mm 4 mps 753 mmHg 82%
23:00 +12°C° 0 mm 3 mps 753 mmHg 85%

13 May, Thursday

Time Temperature Precipitation Wind Pressure Humidity
00:00 +12°C° 0 mm 3 mps 753 mmHg 87%
01:00 +11°C° 0 mm 3 mps 753 mmHg 89%
02:00 +12°C° 0 mm 2 mps 753 mmHg 92%
03:00 +12°C° 0.3 mm 2 mps 752 mmHg 90%
04:00 +12°C° 0.3 mm 2 mps 752 mmHg 88%
05:00 +13°C° 0.3 mm 2 mps 752 mmHg 87%
06:00 +12°C° 0.4 mm 3 mps 752 mmHg 87%
07:00 +12°C° 0.4 mm 3 mps 752 mmHg 87%
08:00 +12°C° 0.4 mm 3 mps 752 mmHg 87%
09:00 +13°C° 0.1 mm 4 mps 752 mmHg 81%
10:00 +14°C° 0.1 mm 4 mps 752 mmHg 75%
11:00 +15°C° 0.1 mm 5 mps 752 mmHg 69%
12:00 +16°C° 0 mm 5 mps 752 mmHg 67%
13:00 +18°C° 0 mm 4 mps 752 mmHg 66%
14:00 +19°C° 0 mm 4 mps 752 mmHg 65%
15:00 +19°C° 0 mm 4 mps 752 mmHg 61%
16:00 +20°C° 0 mm 4 mps 752 mmHg 57%
17:00 +21°C° 0 mm 4 mps 752 mmHg 53%
18:00 +19°C° 0 mm 3 mps 752 mmHg 59%
19:00 +18°C° 0 mm 3 mps 752 mmHg 64%
20:00 +16°C° 0 mm 2 mps 752 mmHg 70%
21:00 +16°C° 0 mm 2 mps 752 mmHg 74%
22:00 +15°C° 0 mm 2 mps 752 mmHg 77%
23:00 +14°C° 0 mm 3 mps 752 mmHg 80%

14 May, Friday

Time Temperature Precipitation Wind Pressure Humidity
00:00 +15°C° 0 mm 2 mps 752 mmHg 81%
01:00 +15°C° 0 mm 2 mps 752 mmHg 81%
02:00 +15°C° 0 mm 2 mps 752 mmHg 81%
03:00 +15°C° 0.2 mm 2 mps 753 mmHg 84%
04:00 +15°C° 0.2 mm 2 mps 753 mmHg 87%
05:00 +15°C° 0.2 mm 2 mps 753 mmHg 90%
06:00 +16°C° 0.3 mm 2 mps 753 mmHg 85%
07:00 +16°C° 0.3 mm 2 mps 753 mmHg 81%
08:00 +17°C° 0.3 mm 2 mps 753 mmHg 76%
09:00 +19°C° 0 mm 2 mps 753 mmHg 70%
10:00 +21°C° 0 mm 2 mps 753 mmHg 63%
11:00 +22°C° 0 mm 3 mps 753 mmHg 57%
12:00 +24°C° 0 mm 3 mps 753 mmHg 55%
13:00 +23°C° 0 mm 4 mps 753 mmHg 53%
14:00 +25°C° 0 mm 4 mps 753 mmHg 51%
15:00 +25°C° 0 mm 4 mps 753 mmHg 50%
16:00 +25°C° 0 mm 4 mps 752 mmHg 49%
17:00 +25°C° 0 mm 4 mps 752 mmHg 48%
18:00 +22°C° 0 mm 4 mps 752 mmHg 53%
19:00 +21°C° 0 mm 3 mps 753 mmHg 59%
20:00 +19°C° 0 mm 3 mps 753 mmHg 64%
21:00 +18°C° 0.1 mm 3 mps 753 mmHg 69%
22:00 +18°C° 0.1 mm 4 mps 753 mmHg 73%
23:00 +17°C° 0.1 mm 4 mps 754 mmHg 78%
Show more